Greenwood, FL

2:00 AM CDT on September 29, 2016 (GMT -0500)
Marianna Municipal

Weather History for KMAI - February, 2014

Change the Weather History Date:

Wednesday, February 12, 2014

  Actual Average Record
Temperature  
Mean Temperature 41 °F 54 °F  
Max Temperature 45 °F 66 °F 76 °F (2016)
Min Temperature 37 °F 43 °F 25 °F (2012)
Degree Days  
Heating Degree Days 24    
Month to date heating degree days 127  
Since 1 July heating degree days 1308  
Cooling Degree Days 0    
Month to date cooling degree days 2  
Year to date cooling degree days 2  
Moisture  
Dew Point 41 °F    
Average Humidity 93    
Maximum Humidity 100    
Minimum Humidity 86    
Precipitation  
Precipitation 1.70 in 0.17 in 1.70 in (2014)
Month to date precipitation 2.20 2.03  
Year to date precipitation 4.56 7.07  
Sea Level Pressure  
Sea Level Pressure 29.88 in    
Wind  
Wind Speed 11 mph (NE)    
Max Wind Speed 24 mph    
Max Gust Speed 31 mph    
Visibility 5 miles    
Events Rain    
T = Trace of Precipitation, MM = Missing Value Source: NWS Daily Summary

Daily Weather History Graph

Daily Weather History Graph

Search for Another Location

Airport or City:

Trip Planner

Search our weather history database for the weather conditions in past years. The results will help you decide how hot, cold, wet, or windy it might be!

Date:

Astronomy

Feb. 12, 2014 Rise Set
Actual Time 6:24 AM CST 5:26 PM CST
Civil Twilight 5:59 AM CST 5:50 PM CST
Nautical Twilight 5:30 AM CST 6:19 PM CST
Astronomical Twilight 5:02 AM CST 6:47 PM CST
Moon 3:41 PM CST (2/12) 4:36 AM CST (2/12)
Length of Visible Light 11h 51m
Length of Day
11h 01m
Waxing Gibbous, 95% of the Moon is Illuminated
Feb 12
Waxing Gibbous
Feb 14
Full
Feb 22
Last Quarter
Mar 1
New
Mar 8
First Quarter

Hourly Weather History & Observations

Time (CST) Temp. Windchill Dew Point Humidity Pressure Visibility Wind Dir Wind Speed Gust Speed Precip Events Conditions
12:53 AM 45.0 °F - 43.0 °F 93% 30.07 in 4.0 mi Calm Calm - 0.03 in Rain Light Rain
12:58 AM 44.6 °F 38.8 °F 42.8 °F 93% 30.05 in 1.8 mi NE 11.5 mph - 0.09 in Rain Heavy Rain
1:07 AM 44.6 °F 38.4 °F 42.8 °F 93% 30.03 in 3.0 mi ENE 12.7 mph - 0.13 in Rain Heavy Rain
1:53 AM 44.1 °F 37.4 °F 42.1 °F 93% 30.02 in 6.0 mi ENE 13.8 mph - 0.23 in Rain Light Rain
2:53 AM 44.1 °F 37.1 °F 41.0 °F 89% 29.99 in 5.0 mi ENE 15.0 mph - 0.10 in Rain Heavy Rain
3:53 AM 43.0 °F 36.0 °F 39.9 °F 89% 29.97 in 10.0 mi ENE 13.8 mph 21.9 mph 0.06 in   Overcast
4:53 AM 43.0 °F 36.8 °F 41.0 °F 93% 29.98 in 10.0 mi ENE 11.5 mph - 0.00 in   Overcast
5:53 AM 42.1 °F 34.5 °F 39.9 °F 92% 30.05 in 10.0 mi North 15.0 mph - 0.00 in Rain Light Rain
6:00 AM 42.8 °F 34.3 °F 39.2 °F 87% 30.07 in 10.0 mi North 19.6 mph 25.3 mph 0.00 in   Overcast
6:40 AM 41.0 °F 32.2 °F 37.4 °F 87% 30.03 in 7.0 mi NE 18.4 mph 27.6 mph 0.03 in Rain Light Rain
6:53 AM 41.0 °F 31.9 °F 37.9 °F 89% 30.03 in 8.0 mi NE 19.6 mph 31.1 mph 0.05 in Rain Rain
7:31 AM 39.2 °F 31.2 °F - N/A% 30.05 in 3.0 mi NE 13.8 mph 20.7 mph 0.15 in Rain Heavy Rain
7:53 AM 39.9 °F 32.9 °F - N/A% 30.12 in 2.0 mi North 11.5 mph - 0.36 in Rain Heavy Rain
7:57 AM 39.2 °F 30.5 °F - N/A% 30.07 in 1.8 mi East 16.1 mph 20.7 mph 0.13 in Rain Heavy Rain
8:06 AM 39.2 °F 29.0 °F - N/A% 30.04 in 2.5 mi East 21.9 mph 28.8 mph 0.21 in Rain Heavy Rain
8:09 AM 39.2 °F 30.2 °F - N/A% 30.03 in 4.0 mi East 17.3 mph 28.8 mph 0.22 in Rain Rain
8:53 AM 41.0 °F 32.8 °F - N/A% 29.95 in 4.0 mi ESE 16.1 mph 21.9 mph 0.40 in Rain Heavy Rain
9:53 AM 43.0 °F 35.7 °F - N/A% 29.94 in 10.0 mi ESE 15.0 mph 26.5 mph 0.07 in Rain Light Rain
10:53 AM 43.0 °F 37.7 °F - N/A% 29.93 in 10.0 mi East 9.2 mph 17.3 mph 0.02 in Rain Light Rain
11:05 AM 42.8 °F 38.0 °F - N/A% 29.92 in 10.0 mi East 8.1 mph - 0.00 in Rain Light Rain
11:17 AM 42.8 °F 36.6 °F - N/A% 29.91 in 10.0 mi East 11.5 mph 18.4 mph 0.01 in Rain Light Rain
11:53 AM 42.1 °F 36.1 °F - N/A% 29.88 in 10.0 mi East 10.4 mph - 0.01 in Rain Light Rain
12:53 PM 42.1 °F 37.1 °F - N/A% 29.84 in 10.0 mi East 8.1 mph - 0.00 in Rain Light Rain
1:53 PM 43.0 °F 37.7 °F 43.0 °F 100% 29.79 in 10.0 mi ENE 9.2 mph - 0.00 in   Overcast
2:10 PM 42.8 °F 38.6 °F 42.8 °F 100% 29.79 in 2.5 mi ENE 6.9 mph - 0.00 in Rain Light Rain
2:45 PM 42.8 °F 37.5 °F 42.8 °F 100% 29.77 in 1.5 mi ENE 9.2 mph - 0.02 in Rain Light Rain
2:53 PM 43.0 °F 38.2 °F 43.0 °F 100% 29.78 in 1.5 mi NE 8.1 mph - 0.04 in Rain Rain
3:08 PM 42.8 °F 37.5 °F 42.8 °F 100% 29.78 in 2.5 mi NNE 9.2 mph - 0.01 in Rain Light Rain
3:18 PM 42.8 °F 38.6 °F 42.8 °F 100% 29.78 in 1.8 mi NE 6.9 mph - 0.05 in Rain Rain
3:29 PM 42.8 °F 37.0 °F 42.8 °F 100% 29.77 in 2.0 mi NE 10.4 mph - 0.11 in Rain Rain
3:37 PM 42.8 °F 37.5 °F 42.8 °F 100% 29.77 in 3.0 mi NE 9.2 mph - 0.11 in Rain Light Rain
3:44 PM 42.8 °F 37.5 °F 42.8 °F 100% 29.76 in 2.5 mi NE 9.2 mph - 0.11 in Rain Light Rain
3:53 PM 43.0 °F 37.7 °F 43.0 °F 100% 29.77 in 2.5 mi NE 9.2 mph - 0.11 in   Overcast
4:33 PM 42.8 °F 37.5 °F 42.8 °F 100% 29.77 in 3.0 mi NNE 9.2 mph - 0.01 in Rain Light Rain
4:48 PM 42.8 °F 37.0 °F 42.8 °F 100% 29.76 in 2.5 mi NE 10.4 mph - 0.02 in Rain Light Rain
4:53 PM 42.1 °F 37.1 °F 42.1 °F 100% 29.77 in 4.0 mi NE 8.1 mph - 0.02 in Rain Light Rain
5:53 PM 42.1 °F 35.7 °F 42.1 °F 100% 29.76 in 7.0 mi NE 11.5 mph - 0.02 in Rain Light Rain
6:16 PM 41.0 °F 35.2 °F 41.0 °F 100% 29.76 in 2.5 mi North 9.2 mph 17.3 mph 0.12 in Rain Heavy Rain
6:24 PM 41.0 °F 35.2 °F 41.0 °F 100% 29.76 in 4.0 mi NNE 9.2 mph - 0.13 in Rain Light Rain
6:40 PM 41.0 °F 35.8 °F 41.0 °F 100% 29.76 in 3.0 mi NE 8.1 mph - 0.16 in Rain Rain
6:48 PM 41.0 °F 35.8 °F 41.0 °F 100% 29.77 in 3.0 mi North 8.1 mph - 0.16 in Rain Light Rain
6:53 PM 41.0 °F 35.8 °F 41.0 °F 100% 29.77 in 4.0 mi North 8.1 mph - 0.16 in Rain Light Rain
7:53 PM 39.9 °F 32.5 °F 39.9 °F 100% 29.78 in 6.0 mi North 12.7 mph - 0.02 in   Overcast
8:53 PM 37.9 °F 30.0 °F 37.9 °F 100% 29.80 in 4.0 mi North 12.7 mph - 0.00 in Rain Light Rain
9:30 PM 37.4 °F 30.3 °F 37.4 °F 100% 29.79 in 9.0 mi NNE 10.4 mph - 0.00 in   Overcast
9:53 PM 37.9 °F 32.7 °F 37.9 °F 100% 29.79 in 10.0 mi North 6.9 mph - 0.00 in   Overcast
10:53 PM 37.0 °F 31.0 °F 37.0 °F 100% 29.79 in 4.0 mi NNW 8.1 mph - N/A   Overcast
11:53 PM 37.9 °F 31.5 °F 37.0 °F 97% 29.80 in 10.0 mi NNW 9.2 mph - N/A   Overcast